Content
SEND FEEDBACK

Daily
Averages
Monthly
Summary
United States of America

LONG BEACH - DOWNTOWN, CALIFORNIA


Home > North America > United States > California
Elevation: 30 feet     Latitude: 33 46N     Longitude: 118 12W

WEATHER
 
SELECT A DAY
Number of Records: 190,714;   Date Range: 1/1/95 - 7/29/14
 
SHARE

PRINT THIS DATA

[ ← Previous Day ]
WEATHER ALMANAC - JANUARY 31, 2013
[ Next Day → ]
[ °C ]   °F
Weather ElementAverageHighLow
Temperature58.9 °F77 °F (1:53 pm)46.9 °F (4:53 am)
Dewpoint44.7 °F48 °F (8:53 pm)41 °F (6:53 am)
Humidity63.3 %93 % (2:53 am)29 % (2:53 pm)
Barometer30.15 in30.22 in (1:53 am)30.09 in (2:53 pm)
Wind Speed3 mph11.5 mph (3:53 pm)
Weather ElementAverage
Visibility8.7 mi
Wind DirectionESE (120.9 °)

Weather ElementTotal
Precipitation---
Heating Degree Days3.1 (Base 65)
Growing Degree Days12 (Base 50)
Averaged from 23 records on January 31, 2013
WEATHER CONDITIONS BREAKOUT
WIND DIRECTION BREAKOUT
WEATHER BY HOUR - JANUARY 31, 2013
[ °C ]   °F
Local TimeTemperatureDewpointHumidityBarometerVisibilityWind DirectionWind SpeedGust SpeedPrecipitationEventsConditions
1:53 AM48.0 °F44.1 °F86 %30.22 in9.0 miCalmClear
2:53 AM48.0 °F46.0 °F93 %30.20 in5.0 miCalmClear
3:53 AM48.0 °F46.0 °F93 %30.19 in7.0 miCalmClear
4:53 AM46.9 °F42.1 °F83 %30.18 in6.0 miCalmHaze
5:53 AM48.9 °F42.1 °F77 %30.18 in8.0 miWest (280°)3.5 mphClear
6:53 AM46.9 °F41.0 °F80 %30.18 in6.0 miCalmHaze
7:53 AM48.9 °F43.0 °F80 %30.20 in6.0 miCalmHaze
8:53 AM54.0 °F44.1 °F69 %30.21 in6.0 miCalmHaze
9:53 AM60.1 °F46.0 °F60 %30.22 in8.0 miCalmPartly Cloudy
10:53 AM66.0 °F46.0 °F48 %30.21 in8.0 miNorth (360°)4.6 mphPartly Cloudy
11:53 AM71.1 °F43.0 °F36 %30.18 in10.0 miNNW (330°)5.8 mphClear
12:53 PM73.9 °F43.0 °F33 %30.14 in10.0 miVariable5.8 mphClear
1:53 PM77.0 °F43.0 °F30 %30.11 in10.0 miNW (310°)4.6 mphClear
2:53 PM77.0 °F42.1 °F29 %30.09 in10.0 miWNW (290°)10.4 mphClear
3:53 PM69.8 °F42.8 °F38 %30.09 in10.0 miWNW (290°)11.5 mphClear
4:53 PM66.9 °F43.0 °F42 %30.09 in10.0 miWNW (300°)10.4 mphClear
5:53 PM62.1 °F46.9 °F58 %30.10 in10.0 miNW (310°)8.1 mphClear
6:53 PM60.1 °F46.9 °F62 %30.11 in10.0 miNW (310°)4.6 mphClear
7:53 PM59.0 °F46.9 °F64 %30.12 in10.0 miCalmClear
8:53 PM59.0 °F48.0 °F67 %30.12 in10.0 miCalmClear
9:53 PM57.0 °F46.9 °F69 %30.12 in10.0 miCalmClear
10:53 PM55.0 °F48.0 °F77 %30.12 in10.0 miCalmClear
11:53 PM52.0 °F46.9 °F83 %30.12 in10.0 miCalmClear
Hourly data recorded from KLGB, located miles away from Long Beach - Downtown, California







STORIES FROM OUR PARTNERS